Flag for Germany Weather past 2 weeks in Siegburg, North Rhine-Westphalia, Germany

Now
35 °F

Light rain. Low clouds.


Feels Like: 32 °F
Forecast: 36 / 43 °F
Wind: 3 mph from Southwest

Location: Bonn-Hangelar

Current Time: Jan 25, 2015 at 5:22:45 PM

Latest Report: Jan 25, 2015 at 5:00 PM


Visibility: 1 mi

Pressure: 30.41 "Hg

Humidity: 100%

Dew point: 35 °F

Location of SiegburgLocation

Historic Weather in Siegburg — Graph

°F

Siegburg temperature yesterday

Maximum temperature yesterday: 35 °F (at 6:00 PM)
Minimum temperature yesterday: 27 °F (at 12:00 AM)
Average temperature yesterday: 32 °F

Past Weeks' High & Low Weather Summary

 TemperatureHumidityPressure
High52 °F (Jan 10, 4:00 PM)100% (Jan 19, 11:00 PM)30.46 "Hg (Jan 19, 11:00 PM)
Low26 °F (Jan 21, 7:00 AM)64% (Jan 10, 9:00 PM)29.44 "Hg (Jan 15, 2:00 PM)
Average36 °F86%29.97 "Hg
* Reported Jan 10 4:00 PM — Jan 25 4:00 PM, Siegburg, Weather by CustomWeather, © 2014

Note: Actual official high and low records may vary slightly from our data, if they occured in-between our weather recording intervals... More about our weather records

Advertising

Siegburg weather history for previous 24 hours

 ConditionsComfort  
Time TempWeatherWind HumidityBarometerVisibility
4:00 PM
Jan 25
35 °FLow clouds.5 mph100%30.42 "Hg1 mi
3:00 PM35 °FLight rain. Low clouds.5 mph98%30.42 "Hg2 mi
2:00 PM35 °FLight rain. Low clouds.5 mph97%30.42 "Hg4 mi
1:00 PM35 °FLight rain. Low clouds.5 mph97%30.44 "Hg4 mi
12:00 PM35 °FFog.5 mph96%30.45 "Hg4 mi
11:00 AM34 °FFog.6 mph97%30.46 "Hg3 mi
10:00 AM34 °FFog.5 mph97%30.45 "Hg3 mi
9:00 AM34 °FOvercast.5 mph97%30.45 "Hg2 mi
8:00 AM33 °FFog.5 mph98%30.44 "Hg3 mi
7:00 AM33 °FFog.2 mph98%30.44 "Hg2 mi
6:00 AM32 °FLow clouds.5 mph98%30.42 "Hg5 mi
4:00 AM31 °FFog.3 mph99%30.40 "Hg2 mi
3:00 AM31 °FFog.3 mph99%30.40 "Hg2 mi
2:00 AM31 °FFog.3 mph100%30.39 "Hg2 mi
1:00 AM32 °FFog.3 mph99%30.38 "Hg2 mi
12:00 AM33 °FFog.5 mph98%30.38 "Hg2 mi
11:00 PM
Jan 24
34 °FPassing clouds.3 mph99%30.36 "Hg3 mi
10:00 PM33 °FPassing clouds.3 mph98%30.35 "Hg4 mi
9:00 PM34 °FPassing clouds.3 mph98%30.33 "Hg6 mi
8:00 PM34 °FLight rain. Low clouds.7 mph94%30.32 "Hg6 mi
7:00 PM35 °FLight rain. Overcast.2 mph98%30.29 "Hg5 mi
6:00 PM35 °FPassing clouds.5 mph96%30.25 "Hg5 mi
5:00 PM35 °FOvercast.5 mph97%30.22 "Hg6 mi
Weather by CustomWeather, © 2014

See weather overviewHow to use our weather pages